Powrót do katalogu

CZ-3B DEB

AktywnyGTO
NORAD 40191·DEBRIS·🇨🇳 China

Wystrzelony Dec 19, 2011 z Xichang Satellite Launch Center

Loading…

TLE

NieaktualneSource: Space-Track

Epoka: Sep 4, 2026, 22:44 UTC

1 40191U 11077Q   26247.94736910  .00000420  00000-0 -18549-3 0  9998
2 40191  25.6922 225.8821 7472473 246.6974  22.9882  1.95224481 81357

Śledź CZ-3B DEB w czasie rzeczywistym z AllMySat

Download on the App Store